Time,TemperatureF,DewpointF,PressureIn,WindDirection,WindDirectionDegrees,WindSpeedMPH,WindSpeedGustMPH,Humidity,HourlyPrecipIn,Conditions,Clouds,dailyrainin,SoftwareType,DateUTC
2013-08-26 00:01:00,58.9,57.2,30.31,SSE,160,0.0,0.0,94,0.00,CLR,,0.00,WeatherDisplay:10.37,2013-08-26 04:01:00,
2013-08-26 00:06:00,58.7,57.3,30.31,SSE,161,0.0,0.0,95,0.00,CLR,,0.00,WeatherDisplay:10.37,2013-08-26 04:06:00,
2013-08-26 00:11:00,58.5,56.8,30.31,SSE,161,0.0,0.0,94,0.00,CLR,,0.00,WeatherDisplay:10.37,2013-08-26 04:11:00,
2013-08-26 00:16:00,58.2,56.5,30.31,SSE,160,0.0,0.0,94,0.00,CLR,,0.00,WeatherDisplay:10.37,2013-08-26 04:16:00,
2013-08-26 00:21:00,58.2,56.8,30.31,SSE,160,0.0,0.0,95,0.00,CLR,,0.00,WeatherDisplay:10.37,2013-08-26 04:21:00,
2013-08-26 00:26:00,58.1,56.7,30.31,SSE,160,0.0,0.0,95,0.00,CLR,,0.00,WeatherDisplay:10.37,2013-08-26 04:26:00,
2013-08-26 00:31:00,58.0,56.6,30.31,SSE,160,0.0,0.0,95,0.00,CLR,,0.00,WeatherDisplay:10.37,2013-08-26 04:31:00,
2013-08-26 00:36:00,57.8,56.4,30.31,SSE,161,0.0,0.0,95,0.00,CLR,,0.00,WeatherDisplay:10.37,2013-08-26 04:36:00,
2013-08-26 00:41:00,57.6,56.2,30.31,SSE,160,0.0,0.0,95,0.00,CLR,,0.00,WeatherDisplay:10.37,2013-08-26 04:41:00,
2013-08-26 00:46:00,57.4,56.0,30.31,SSE,161,0.0,0.0,95,0.00,CLR,,0.00,WeatherDisplay:10.37,2013-08-26 04:46:00,
2013-08-26 00:51:00,57.3,55.9,30.31,SSE,160,0.0,0.0,95,0.00,CLR,,0.00,WeatherDisplay:10.37,2013-08-26 04:51:00,
2013-08-26 00:57:00,57.1,56.0,30.31,SSE,160,0.0,0.0,96,0.00,CLR,,0.00,WeatherDisplay:10.37,2013-08-26 04:57:00,
2013-08-26 01:02:00,56.9,55.8,30.31,SSE,160,0.0,0.0,96,0.00,CLR,,0.00,WeatherDisplay:10.37,2013-08-26 05:02:00,
2013-08-26 01:07:00,56.8,55.7,30.31,SSE,161,0.0,0.0,96,0.00,,,0.00,WeatherDisplay:10.37,2013-08-26 05:07:00,
2013-08-26 01:12:00,56.7,55.6,30.31,SSE,161,0.0,0.0,96,0.00,,,0.00,WeatherDisplay:10.37,2013-08-26 05:12:00,
2013-08-26 01:17:00,56.6,55.5,30.31,SSE,160,0.0,0.0,96,0.00,,,0.00,WeatherDisplay:10.37,2013-08-26 05:17:00,
2013-08-26 01:22:00,56.3,55.2,30.31,SSE,161,0.0,0.0,96,0.00,,,0.00,WeatherDisplay:10.37,2013-08-26 05:22:00,
2013-08-26 01:27:00,56.2,55.1,30.31,SSE,160,0.0,0.0,96,0.00,,,0.00,WeatherDisplay:10.37,2013-08-26 05:27:00,
2013-08-26 01:32:00,56.2,55.1,30.31,SSE,160,0.0,0.0,96,0.00,,,0.00,WeatherDisplay:10.37,2013-08-26 05:32:00,
2013-08-26 01:37:00,56.2,55.1,30.31,SSE,161,0.0,0.0,96,0.00,,,0.00,WeatherDisplay:10.37,2013-08-26 05:37:00,
2013-08-26 01:42:00,56.2,55.4,30.31,SSE,160,0.0,0.0,97,0.00,,,0.00,WeatherDisplay:10.37,2013-08-26 05:42:00,
2013-08-26 01:47:00,56.1,55.3,30.31,SSE,160,0.0,0.0,97,0.00,,,0.00,WeatherDisplay:10.37,2013-08-26 05:47:00,
2013-08-26 01:52:00,56.1,55.3,30.31,SSE,160,0.0,0.0,97,0.00,,,0.00,WeatherDisplay:10.37,2013-08-26 05:52:00,
2013-08-26 01:57:00,56.0,55.2,30.31,SSE,160,0.0,0.0,97,0.00,,,0.00,WeatherDisplay:10.37,2013-08-26 05:57:00,
2013-08-26 02:02:00,55.9,55.1,30.30,SSE,160,0.0,0.0,97,0.00,,,0.00,WeatherDisplay:10.37,2013-08-26 06:02:00,
2013-08-26 02:07:00,55.8,55.0,30.30,SSE,160,0.0,0.0,97,0.00,,,0.00,WeatherDisplay:10.37,2013-08-26 06:07:00,
2013-08-26 02:12:00,55.7,54.9,30.30,SSE,161,0.0,0.0,97,0.00,,,0.00,WeatherDisplay:10.37,2013-08-26 06:12:00,
2013-08-26 02:17:00,55.7,54.9,30.30,SSE,160,0.0,0.0,97,0.00,,,0.00,WeatherDisplay:10.37,2013-08-26 06:17:00,
2013-08-26 02:22:00,55.7,54.9,30.30,SSE,160,0.0,0.0,97,0.00,,,0.00,WeatherDisplay:10.37,2013-08-26 06:22:00,
2013-08-26 02:27:00,55.7,54.9,30.30,SSE,161,0.0,0.0,97,0.00,,,0.00,WeatherDisplay:10.37,2013-08-26 06:27:00,
2013-08-26 02:32:00,55.7,54.9,30.30,SSE,160,0.0,0.0,97,0.00,,,0.00,WeatherDisplay:10.37,2013-08-26 06:32:00,
2013-08-26 02:37:00,55.7,54.9,30.30,SSE,160,0.0,0.0,97,0.00,,,0.00,WeatherDisplay:10.37,2013-08-26 06:37:00,
2013-08-26 02:42:00,55.4,54.6,30.29,SSE,160,0.0,0.0,97,0.00,,,0.00,WeatherDisplay:10.37,2013-08-26 06:42:00,
2013-08-26 02:47:00,55.2,54.4,30.29,SSE,160,0.0,0.0,97,0.00,,,0.00,WeatherDisplay:10.37,2013-08-26 06:47:00,
2013-08-26 02:52:00,55.0,54.2,30.29,SSE,160,0.0,0.0,97,0.00,,,0.00,WeatherDisplay:10.37,2013-08-26 06:52:00,
2013-08-26 02:57:00,54.9,54.1,30.29,SSE,160,0.0,0.0,97,0.00,,,0.00,WeatherDisplay:10.37,2013-08-26 06:57:00,
2013-08-26 03:02:00,54.8,54.0,30.29,SSE,160,0.0,0.0,97,0.00,,,0.00,WeatherDisplay:10.37,2013-08-26 07:02:00,
2013-08-26 03:07:00,54.7,53.9,30.29,SSE,160,0.0,0.0,97,0.00,,,0.00,WeatherDisplay:10.37,2013-08-26 07:07:00,
2013-08-26 03:12:00,54.5,53.7,30.29,SSE,161,0.0,0.0,97,0.00,,,0.00,WeatherDisplay:10.37,2013-08-26 07:12:00,
2013-08-26 03:17:00,54.7,54.1,30.28,SSE,161,0.0,0.0,98,0.00,,,0.00,WeatherDisplay:10.37,2013-08-26 07:17:00,
2013-08-26 03:22:00,54.8,54.2,30.28,SSE,161,0.0,0.0,98,0.00,,,0.00,WeatherDisplay:10.37,2013-08-26 07:22:00,
2013-08-26 03:27:00,54.7,53.9,30.28,SSE,160,0.0,0.0,97,0.00,,,0.00,WeatherDisplay:10.37,2013-08-26 07:27:00,
2013-08-26 03:32:00,54.5,53.7,30.28,SSE,161,0.0,0.0,97,0.00,,,0.00,WeatherDisplay:10.37,2013-08-26 07:32:00,
2013-08-26 03:37:00,54.5,53.7,30.28,SSE,160,0.0,0.0,97,0.00,,,0.00,WeatherDisplay:10.37,2013-08-26 07:37:00,
2013-08-26 03:42:00,54.6,54.0,30.28,SSE,160,0.0,0.0,98,0.00,,,0.00,WeatherDisplay:10.37,2013-08-26 07:42:00,
2013-08-26 03:47:00,54.6,54.0,30.28,SSE,160,0.0,0.0,98,0.00,,,0.00,WeatherDisplay:10.37,2013-08-26 07:47:00,
2013-08-26 03:52:00,54.4,53.6,30.28,SSE,161,0.0,0.0,97,0.00,,,0.00,WeatherDisplay:10.37,2013-08-26 07:52:00,
2013-08-26 03:57:00,54.2,53.4,30.28,SSE,160,0.0,0.0,97,0.00,,,0.00,WeatherDisplay:10.37,2013-08-26 07:57:00,
2013-08-26 04:02:00,54.1,53.5,30.28,SSE,161,0.0,0.0,98,0.00,,,0.00,WeatherDisplay:10.37,2013-08-26 08:02:00,
2013-08-26 04:07:00,54.2,53.6,30.28,SSE,160,0.0,0.0,98,0.00,,,0.00,WeatherDisplay:10.37,2013-08-26 08:07:00,
2013-08-26 04:12:00,53.9,53.1,30.28,SSE,160,0.0,0.0,97,0.00,,,0.00,WeatherDisplay:10.37,2013-08-26 08:12:00,
2013-08-26 04:17:00,53.7,52.9,30.28,SSE,160,0.0,0.0,97,0.00,,,0.00,WeatherDisplay:10.37,2013-08-26 08:17:00,
2013-08-26 04:22:00,53.4,52.6,30.27,SSE,160,0.0,0.0,97,0.00,,,0.00,WeatherDisplay:10.37,2013-08-26 08:22:00,
2013-08-26 04:27:00,53.6,53.0,30.27,SSE,160,0.0,0.0,98,0.00,,,0.00,WeatherDisplay:10.37,2013-08-26 08:27:00,
2013-08-26 04:32:00,53.5,52.9,30.27,SSE,160,0.0,0.0,98,0.00,,,0.00,WeatherDisplay:10.37,2013-08-26 08:32:00,
2013-08-26 04:37:00,53.7,53.1,30.27,SSE,160,0.0,0.0,98,0.00,,,0.00,WeatherDisplay:10.37,2013-08-26 08:37:00,
2013-08-26 04:42:00,53.7,53.1,30.27,SSE,160,0.0,0.0,98,0.00,,,0.00,WeatherDisplay:10.37,2013-08-26 08:42:00,
2013-08-26 04:47:00,53.6,53.0,30.27,SSE,160,0.0,0.0,98,0.00,,,0.00,WeatherDisplay:10.37,2013-08-26 08:47:00,
2013-08-26 04:52:00,53.7,53.1,30.27,SSE,160,0.0,0.0,98,0.00,,,0.00,WeatherDisplay:10.37,2013-08-26 08:52:00,
2013-08-26 04:57:00,53.9,53.3,30.27,SSE,160,0.0,0.0,98,0.00,,,0.00,WeatherDisplay:10.37,2013-08-26 08:57:00,
2013-08-26 05:02:00,53.9,53.3,30.27,SSE,160,0.0,0.0,98,0.00,,,0.00,WeatherDisplay:10.37,2013-08-26 09:02:00,
2013-08-26 05:07:00,53.7,53.1,30.27,SSE,160,0.0,0.0,98,0.00,,,0.00,WeatherDisplay:10.37,2013-08-26 09:07:00,
2013-08-26 05:12:00,53.6,53.0,30.27,SSE,160,0.0,0.0,98,0.00,,,0.00,WeatherDisplay:10.37,2013-08-26 09:12:00,
2013-08-26 05:17:00,53.4,52.8,30.27,SSE,161,0.0,0.0,98,0.00,,,0.00,WeatherDisplay:10.37,2013-08-26 09:17:00,
2013-08-26 05:22:00,53.4,52.8,30.27,SSE,160,0.0,0.0,98,0.00,,,0.00,WeatherDisplay:10.37,2013-08-26 09:22:00,
2013-08-26 05:27:00,53.3,52.8,30.27,SSE,160,0.0,0.0,98,0.00,,,0.00,WeatherDisplay:10.37,2013-08-26 09:27:00,
2013-08-26 05:32:00,53.3,52.8,30.27,SSE,160,0.0,0.0,98,0.00,,,0.00,WeatherDisplay:10.37,2013-08-26 09:32:00,
2013-08-26 05:37:00,53.3,52.8,30.27,SSE,161,0.0,0.0,98,0.00,,,0.00,WeatherDisplay:10.37,2013-08-26 09:37:00,
2013-08-26 05:42:00,53.2,52.7,30.27,SSE,161,0.0,0.0,98,0.00,,,0.00,WeatherDisplay:10.37,2013-08-26 09:42:00,
2013-08-26 05:47:00,53.0,52.5,30.27,SSE,160,0.0,0.0,98,0.00,,,0.00,WeatherDisplay:10.37,2013-08-26 09:47:00,
2013-08-26 05:52:00,52.8,52.3,30.27,SSE,160,0.0,0.0,98,0.00,,,0.00,WeatherDisplay:10.37,2013-08-26 09:52:00,
2013-08-26 05:57:00,52.7,52.2,30.27,SSE,160,0.0,0.0,98,0.00,,,0.00,WeatherDisplay:10.37,2013-08-26 09:57:00,
2013-08-26 06:02:00,52.6,52.1,30.27,SSE,161,0.0,0.0,98,0.00,,,0.00,WeatherDisplay:10.37,2013-08-26 10:02:00,
2013-08-26 06:07:00,52.8,52.3,30.27,SSE,160,0.0,0.0,98,0.00,,,0.00,WeatherDisplay:10.37,2013-08-26 10:07:00,
2013-08-26 06:12:00,52.9,52.4,30.27,SSE,161,0.0,0.0,98,0.00,,,0.00,WeatherDisplay:10.37,2013-08-26 10:12:00,
2013-08-26 06:17:00,52.8,52.3,30.27,SSE,161,0.0,0.0,98,0.00,,,0.00,WeatherDisplay:10.37,2013-08-26 10:17:00,
2013-08-26 06:22:00,52.5,52.0,30.27,SSE,161,0.0,0.0,98,0.00,,,0.00,WeatherDisplay:10.37,2013-08-26 10:22:00,
2013-08-26 06:27:00,52.2,51.7,30.27,SSE,160,0.0,0.0,98,0.00,CLR,,0.00,WeatherDisplay:10.37,2013-08-26 10:27:00,
2013-08-26 06:32:00,52.2,51.7,30.28,SSE,161,0.0,0.0,98,0.00,CLR,,0.00,WeatherDisplay:10.37,2013-08-26 10:32:00,
2013-08-26 06:37:00,52.0,51.5,30.28,SSE,160,0.0,0.0,98,0.00,CLR,,0.00,WeatherDisplay:10.37,2013-08-26 10:37:00,
2013-08-26 06:42:00,51.9,51.4,30.28,SSE,160,0.0,0.0,98,0.00,CLR,,0.00,WeatherDisplay:10.37,2013-08-26 10:42:00,
2013-08-26 06:47:00,51.7,51.2,30.29,SSE,160,0.0,0.0,98,0.00,CLR,,0.00,WeatherDisplay:10.37,2013-08-26 10:47:00,
2013-08-26 06:52:00,51.6,51.1,30.29,SSE,160,0.0,0.0,98,0.00,CLR,,0.00,WeatherDisplay:10.37,2013-08-26 10:52:00,
2013-08-26 06:57:00,51.9,51.4,30.29,SSE,160,0.0,0.0,98,0.00,CLR,,0.00,WeatherDisplay:10.37,2013-08-26 10:57:00,
2013-08-26 07:02:00,51.9,51.4,30.29,SSE,161,0.0,0.0,98,0.00,CLR,,0.00,WeatherDisplay:10.37,2013-08-26 11:02:00,
2013-08-26 07:07:00,52.1,51.6,30.29,SSE,160,0.0,0.0,98,0.00,CLR,,0.00,WeatherDisplay:10.37,2013-08-26 11:07:00,
2013-08-26 07:12:00,52.2,51.7,30.29,SSE,160,0.0,0.0,98,0.00,CLR,,0.00,WeatherDisplay:10.37,2013-08-26 11:12:00,
2013-08-26 07:17:00,52.4,51.9,30.29,SSE,161,0.0,0.0,98,0.00,CLR,,0.00,WeatherDisplay:10.37,2013-08-26 11:17:00,
2013-08-26 07:22:00,52.5,52.0,30.29,SSE,160,0.0,0.0,98,0.00,CLR,,0.00,WeatherDisplay:10.37,2013-08-26 11:22:00,
2013-08-26 07:27:00,52.7,52.2,30.29,SSE,161,0.0,0.0,98,0.00,CLR,,0.00,WeatherDisplay:10.37,2013-08-26 11:27:00,
2013-08-26 07:32:00,52.9,52.4,30.29,SSE,161,0.0,0.0,98,0.00,CLR,,0.00,WeatherDisplay:10.37,2013-08-26 11:32:00,
2013-08-26 07:37:00,53.0,52.5,30.29,SSE,160,0.0,0.0,98,0.00,CLR,,0.00,WeatherDisplay:10.37,2013-08-26 11:37:00,
2013-08-26 07:43:00,53.1,52.6,30.29,SSE,160,0.0,0.0,98,0.00,CLR,,0.00,WeatherDisplay:10.37,2013-08-26 11:43:00,
2013-08-26 07:48:00,53.6,53.3,30.29,SSE,160,0.0,0.0,99,0.00,CLR,,0.00,WeatherDisplay:10.37,2013-08-26 11:48:00,
2013-08-26 07:53:00,54.0,53.7,30.29,SSE,160,0.0,0.0,99,0.00,CLR,,0.00,WeatherDisplay:10.37,2013-08-26 11:53:00,
2013-08-26 07:58:00,54.5,54.2,30.30,SSE,161,0.0,0.0,99,0.00,CLR,,0.00,WeatherDisplay:10.37,2013-08-26 11:58:00,
2013-08-26 08:03:00,54.9,54.6,30.30,SSE,160,0.0,0.0,99,0.00,CLR,,0.00,WeatherDisplay:10.37,2013-08-26 12:03:00,
2013-08-26 08:08:00,55.5,55.2,30.30,SSE,160,1.2,1.2,99,0.00,CLR,,0.00,WeatherDisplay:10.37,2013-08-26 12:08:00,
2013-08-26 08:13:00,56.0,55.7,30.30,SSE,160,1.2,1.2,99,0.00,CLR,,0.00,WeatherDisplay:10.37,2013-08-26 12:13:00,
2013-08-26 08:18:00,56.4,56.1,30.29,SSE,160,1.2,1.2,99,0.00,CLR,,0.00,WeatherDisplay:10.37,2013-08-26 12:18:00,
2013-08-26 08:23:00,57.0,56.7,30.29,SSE,160,2.3,2.3,99,0.00,CLR,,0.00,WeatherDisplay:10.37,2013-08-26 12:23:00,
2013-08-26 08:28:00,57.6,57.3,30.29,SE,125,1.2,1.2,99,0.00,CLR,,0.00,WeatherDisplay:10.37,2013-08-26 12:28:00,
2013-08-26 08:33:00,58.0,57.4,30.29,NNE,22,2.3,2.3,98,0.00,CLR,,0.00,WeatherDisplay:10.37,2013-08-26 12:33:00,
2013-08-26 08:38:00,59.2,58.6,30.29,SSE,147,1.2,1.2,98,0.00,CLR,,0.00,WeatherDisplay:10.37,2013-08-26 12:38:00,
2013-08-26 08:43:00,60.1,59.0,30.29,ESE,119,1.2,1.2,96,0.00,CLR,,0.00,WeatherDisplay:10.37,2013-08-26 12:43:00,
2013-08-26 08:48:00,60.9,59.5,30.29,ESE,123,0.0,0.0,95,0.00,CLR,,0.00,WeatherDisplay:10.37,2013-08-26 12:48:00,
2013-08-26 08:53:00,61.4,59.1,30.30,East,95,1.2,1.2,92,0.00,CLR,,0.00,WeatherDisplay:10.37,2013-08-26 12:53:00,
2013-08-26 08:58:00,62.0,59.0,30.30,East,95,0.0,0.0,90,0.00,CLR,,0.00,WeatherDisplay:10.37,2013-08-26 12:58:00,
2013-08-26 09:03:00,62.8,59.8,30.30,East,95,0.0,0.0,90,0.00,CLR,,0.00,WeatherDisplay:10.37,2013-08-26 13:03:00,
2013-08-26 09:08:00,63.5,59.2,30.30,ESE,115,1.2,0.0,86,0.00,CLR,,0.00,WeatherDisplay:10.37,2013-08-26 13:08:00,
2013-08-26 09:13:00,63.6,59.3,30.30,ESE,117,1.2,1.2,86,0.00,CLR,,0.00,WeatherDisplay:10.37,2013-08-26 13:13:00,
2013-08-26 09:18:00,64.3,60.3,30.30,ESE,116,1.2,1.2,87,0.00,CLR,,0.00,WeatherDisplay:10.37,2013-08-26 13:18:00,
2013-08-26 09:23:00,65.4,60.8,30.31,ESE,116,1.2,0.0,85,0.00,CLR,,0.00,WeatherDisplay:10.37,2013-08-26 13:23:00,
2013-08-26 09:28:00,65.4,60.1,30.31,SE,128,1.2,1.2,83,0.00,CLR,,0.00,WeatherDisplay:10.37,2013-08-26 13:28:00,
2013-08-26 09:33:00,66.2,61.2,30.30,SE,129,0.0,0.0,84,0.00,CLR,,0.00,WeatherDisplay:10.37,2013-08-26 13:33:00,
2013-08-26 09:38:00,66.6,60.9,30.30,SE,129,0.0,0.0,82,0.00,CLR,,0.00,WeatherDisplay:10.37,2013-08-26 13:38:00,
2013-08-26 09:43:00,67.0,61.0,30.30,West,274,2.3,2.3,81,0.00,CLR,,0.00,WeatherDisplay:10.37,2013-08-26 13:43:00,
2013-08-26 09:48:00,67.3,61.3,30.31,WNW,286,3.5,3.5,81,0.00,CLR,,0.00,WeatherDisplay:10.37,2013-08-26 13:48:00,
2013-08-26 09:53:00,67.5,61.5,30.30,NW,324,2.0,2.0,81,0.00,CLR,,0.00,WeatherDisplay:10.37,2013-08-26 13:53:00,
2013-08-26 09:58:00,67.3,60.9,30.30,NW,314,3.0,3.0,80,0.00,CLR,,0.00,WeatherDisplay:10.37,2013-08-26 13:58:00,
2013-08-26 10:03:00,67.3,60.9,30.30,West,269,2.3,2.3,80,0.00,CLR,,0.00,WeatherDisplay:10.37,2013-08-26 14:03:00,
2013-08-26 10:08:00,67.9,60.8,30.30,West,275,1.2,1.2,78,0.00,CLR,,0.00,WeatherDisplay:10.37,2013-08-26 14:08:00,
2013-08-26 10:13:00,68.7,61.2,30.30,NW,305,2.3,2.3,77,0.00,CLR,,0.00,WeatherDisplay:10.37,2013-08-26 14:13:00,
2013-08-26 10:18:00,68.7,61.2,30.30,WSW,240,2.3,2.3,77,0.00,CLR,,0.00,WeatherDisplay:10.37,2013-08-26 14:18:00,
2013-08-26 10:23:00,69.1,61.2,30.30,WSW,242,2.3,2.3,76,0.00,CLR,,0.00,WeatherDisplay:10.37,2013-08-26 14:23:00,
2013-08-26 10:28:00,69.6,61.7,30.30,WSW,250,1.2,1.2,76,0.00,CLR,,0.00,WeatherDisplay:10.37,2013-08-26 14:28:00,
2013-08-26 10:33:00,70.5,62.2,30.30,WSW,250,1.2,1.2,75,0.00,CLR,,0.00,WeatherDisplay:10.37,2013-08-26 14:33:00,
2013-08-26 10:38:00,71.2,62.1,30.30,WSW,238,1.2,1.2,73,0.00,CLR,,0.00,WeatherDisplay:10.37,2013-08-26 14:38:00,
2013-08-26 10:43:00,71.5,62.4,30.30,West,281,2.3,2.3,73,0.00,CLR,,0.00,WeatherDisplay:10.37,2013-08-26 14:43:00,
2013-08-26 10:48:00,72.4,63.3,30.30,WSW,250,3.5,3.5,73,0.00,CLR,,0.00,WeatherDisplay:10.37,2013-08-26 14:48:00,
2013-08-26 10:53:00,72.8,62.4,30.30,WNW,299,2.3,2.3,70,0.00,CLR,,0.00,WeatherDisplay:10.37,2013-08-26 14:53:00,
2013-08-26 10:58:00,73.1,62.7,30.29,SW,236,3.0,3.0,70,0.00,CLR,,0.00,WeatherDisplay:10.37,2013-08-26 14:58:00,
2013-08-26 11:03:00,73.1,61.5,30.29,WSW,252,3.5,3.5,67,0.00,CLR,,0.00,WeatherDisplay:10.37,2013-08-26 15:03:00,
2013-08-26 11:08:00,72.9,61.7,30.28,WSW,257,1.2,1.2,68,0.00,CLR,,0.00,WeatherDisplay:10.37,2013-08-26 15:08:00,
2013-08-26 11:13:00,73.5,62.7,30.28,WNW,302,2.3,2.3,69,0.00,CLR,,0.00,WeatherDisplay:10.37,2013-08-26 15:13:00,
2013-08-26 11:18:00,73.8,63.0,30.29,West,259,4.0,4.0,69,0.00,CLR,,0.00,WeatherDisplay:10.37,2013-08-26 15:18:00,
2013-08-26 11:23:00,73.9,62.7,30.29,WSW,249,3.5,3.5,68,0.00,CLR,,0.00,WeatherDisplay:10.37,2013-08-26 15:23:00,
2013-08-26 11:28:00,74.2,63.0,30.28,WSW,256,3.5,3.5,68,0.00,CLR,,0.00,WeatherDisplay:10.37,2013-08-26 15:28:00,
2013-08-26 11:33:00,74.0,62.3,30.28,WSW,254,4.6,4.6,67,0.00,CLR,,0.00,WeatherDisplay:10.37,2013-08-26 15:33:00,
2013-08-26 11:38:00,73.8,62.6,30.28,WSW,255,3.5,3.5,68,0.00,CLR,,0.00,WeatherDisplay:10.37,2013-08-26 15:38:00,
2013-08-26 11:43:00,74.2,63.0,30.28,WSW,252,3.5,3.5,68,0.00,CLR,,0.00,WeatherDisplay:10.37,2013-08-26 15:43:00,
2013-08-26 11:48:00,74.2,62.1,30.28,WSW,246,3.5,3.5,66,0.00,CLR,,0.00,WeatherDisplay:10.37,2013-08-26 15:48:00,
2013-08-26 11:53:00,74.9,63.2,30.28,WSW,248,5.0,5.0,67,0.00,CLR,,0.00,WeatherDisplay:10.37,2013-08-26 15:53:00,
2013-08-26 11:58:00,75.2,63.9,30.27,WSW,243,5.8,5.8,68,0.00,CLR,,0.00,WeatherDisplay:10.37,2013-08-26 15:58:00,
2013-08-26 12:03:00,74.8,62.2,30.27,WSW,254,5.8,5.8,65,0.00,CLR,,0.00,WeatherDisplay:10.37,2013-08-26 16:03:00,
2013-08-26 12:08:00,74.9,63.2,30.27,WSW,254,3.5,3.5,67,0.00,CLR,,0.00,WeatherDisplay:10.37,2013-08-26 16:08:00,
2013-08-26 12:13:00,75.4,63.7,30.26,West,267,3.5,3.5,67,0.00,CLR,,0.00,WeatherDisplay:10.37,2013-08-26 16:13:00,
2013-08-26 12:18:00,76.0,64.2,30.26,WSW,257,3.5,3.5,67,0.00,CLR,,0.00,WeatherDisplay:10.37,2013-08-26 16:18:00,
2013-08-26 12:23:00,76.6,64.0,30.26,WSW,254,3.5,3.8,65,0.00,CLR,,0.00,WeatherDisplay:10.37,2013-08-26 16:23:00,
2013-08-26 12:28:00,76.1,63.9,30.26,WNW,293,2.3,0.0,66,0.00,CLR,,0.00,WeatherDisplay:10.37,2013-08-26 16:28:00,
2013-08-26 12:33:00,76.1,64.3,30.25,WSW,238,1.2,1.2,67,0.00,CLR,,0.00,WeatherDisplay:10.37,2013-08-26 16:33:00,
2013-08-26 12:38:00,76.9,64.7,30.26,West,269,4.6,4.6,66,0.00,CLR,,0.00,WeatherDisplay:10.37,2013-08-26 16:38:00,
2013-08-26 12:43:00,77.0,63.9,30.25,SW,218,3.5,3.5,64,0.00,CLR,,0.00,WeatherDisplay:10.37,2013-08-26 16:43:00,
2013-08-26 12:48:00,76.7,64.0,30.25,West,261,5.8,5.8,65,0.00,CLR,,0.00,WeatherDisplay:10.37,2013-08-26 16:48:00,
2013-08-26 12:53:00,76.6,64.0,30.25,WSW,257,1.2,1.2,65,0.00,CLR,,0.00,WeatherDisplay:10.37,2013-08-26 16:53:00,
2013-08-26 12:58:00,77.2,65.4,30.25,WSW,250,5.0,5.0,67,0.00,CLR,,0.00,WeatherDisplay:10.37,2013-08-26 16:58:00,
2013-08-26 13:03:00,77.3,64.6,30.24,WSW,244,3.5,3.5,65,0.00,CLR,,0.00,WeatherDisplay:10.37,2013-08-26 17:03:00,
2013-08-26 13:08:00,78.1,65.8,30.24,WNW,300,3.5,3.5,66,0.00,CLR,,0.00,WeatherDisplay:10.37,2013-08-26 17:08:00,
2013-08-26 13:13:00,77.9,64.7,30.24,SW,234,3.5,3.5,64,0.00,CLR,,0.00,WeatherDisplay:10.37,2013-08-26 17:13:00,
2013-08-26 13:18:00,77.4,64.3,30.24,WSW,252,5.8,5.8,64,0.00,CLR,,0.00,WeatherDisplay:10.37,2013-08-26 17:18:00,
2013-08-26 13:23:00,77.4,65.1,30.24,SSE,168,3.5,3.5,66,0.00,CLR,,0.00,WeatherDisplay:10.37,2013-08-26 17:23:00,
2013-08-26 13:29:00,77.3,65.1,30.24,SE,143,4.0,4.0,66,0.00,CLR,,0.00,WeatherDisplay:10.37,2013-08-26 17:29:00,
2013-08-26 13:34:00,76.8,65.0,30.24,WSW,243,2.3,2.3,67,0.00,CLR,,0.00,WeatherDisplay:10.37,2013-08-26 17:34:00,
2013-08-26 13:39:00,76.7,64.9,30.23,SW,234,5.8,5.8,67,0.00,CLR,,0.00,WeatherDisplay:10.37,2013-08-26 17:39:00,
2013-08-26 13:44:00,76.8,65.9,30.23,WNW,297,2.3,2.3,69,0.00,CLR,,0.00,WeatherDisplay:10.37,2013-08-26 17:44:00,
2013-08-26 13:49:00,77.8,66.4,30.23,NE,36,3.5,3.5,68,0.00,CLR,,0.00,WeatherDisplay:10.37,2013-08-26 17:49:00,
2013-08-26 13:54:00,77.8,65.5,30.23,WSW,251,2.3,2.3,66,0.00,CLR,,0.00,WeatherDisplay:10.37,2013-08-26 17:54:00,
2013-08-26 13:59:00,77.0,65.2,30.23,West,271,4.6,4.6,67,0.00,CLR,,0.00,WeatherDisplay:10.37,2013-08-26 17:59:00,
2013-08-26 14:04:00,77.0,65.6,30.22,West,259,2.3,2.3,68,0.00,CLR,,0.00,WeatherDisplay:10.37,2013-08-26 18:04:00,
2013-08-26 14:09:00,78.1,65.4,30.22,West,259,3.5,3.5,65,0.00,CLR,,0.00,WeatherDisplay:10.37,2013-08-26 18:09:00,
2013-08-26 14:14:00,78.7,66.4,30.22,WSW,253,3.5,3.5,66,0.00,CLR,,0.00,WeatherDisplay:10.37,2013-08-26 18:14:00,
2013-08-26 14:19:00,79.5,66.7,30.21,West,267,2.3,2.3,65,0.00,CLR,,0.00,WeatherDisplay:10.37,2013-08-26 18:19:00,
2013-08-26 14:24:00,79.7,66.0,30.21,WSW,245,5.8,5.8,63,0.00,CLR,,0.00,WeatherDisplay:10.37,2013-08-26 18:24:00,
2013-08-26 14:29:00,79.0,65.8,30.21,WSW,250,5.8,5.8,64,0.00,CLR,,0.00,WeatherDisplay:10.37,2013-08-26 18:29:00,
2013-08-26 14:34:00,78.2,65.5,30.21,WSW,247,3.5,3.5,65,0.00,CLR,,0.00,WeatherDisplay:10.37,2013-08-26 18:34:00,
2013-08-26 14:39:00,79.2,67.3,30.21,WSW,246,6.9,6.9,67,0.00,CLR,,0.00,WeatherDisplay:10.37,2013-08-26 18:39:00,
2013-08-26 14:44:00,79.4,67.0,30.21,WSW,254,3.5,3.5,66,0.00,CLR,,0.00,WeatherDisplay:10.37,2013-08-26 18:44:00,
2013-08-26 14:49:00,79.9,65.7,30.20,West,278,3.5,3.5,62,0.00,CLR,,0.00,WeatherDisplay:10.37,2013-08-26 18:49:00,
2013-08-26 14:54:00,80.0,65.8,30.20,WSW,257,3.5,3.5,62,0.00,CLR,,0.00,WeatherDisplay:10.37,2013-08-26 18:54:00,
2013-08-26 14:59:00,80.2,65.5,30.20,West,273,2.3,2.3,61,0.00,CLR,,0.00,WeatherDisplay:10.37,2013-08-26 18:59:00,
2013-08-26 15:04:00,80.7,67.8,30.19,West,262,3.5,3.5,65,0.00,CLR,,0.00,WeatherDisplay:10.37,2013-08-26 19:04:00,
2013-08-26 15:09:00,81.4,67.1,30.20,WSW,244,6.9,6.9,62,0.00,CLR,,0.00,WeatherDisplay:10.37,2013-08-26 19:09:00,
2013-08-26 15:14:00,80.7,65.5,30.19,WSW,244,3.5,3.5,60,0.00,CLR,,0.00,WeatherDisplay:10.37,2013-08-26 19:14:00,
2013-08-26 15:19:00,81.0,67.2,30.19,West,271,3.5,3.5,63,0.00,CLR,,0.00,WeatherDisplay:10.37,2013-08-26 19:19:00,
2013-08-26 15:24:00,80.9,66.2,30.19,WSW,256,3.5,3.5,61,0.00,CLR,,0.00,WeatherDisplay:10.37,2013-08-26 19:24:00,
2013-08-26 15:29:00,80.9,66.7,30.19,NW,316,5.8,5.8,62,0.00,CLR,,0.00,WeatherDisplay:10.37,2013-08-26 19:29:00,
2013-08-26 15:34:00,80.6,66.4,30.19,WSW,257,1.2,1.2,62,0.00,CLR,,0.00,WeatherDisplay:10.37,2013-08-26 19:34:00,
2013-08-26 15:39:00,80.0,66.3,30.18,SSW,198,1.2,0.0,63,0.00,CLR,,0.00,WeatherDisplay:10.37,2013-08-26 19:39:00,
2013-08-26 15:44:00,79.6,65.9,30.18,West,264,2.3,2.3,63,0.00,CLR,,0.00,WeatherDisplay:10.37,2013-08-26 19:44:00,
2013-08-26 15:49:00,79.8,65.6,30.18,WNW,290,1.2,0.0,62,0.00,CLR,,0.00,WeatherDisplay:10.37,2013-08-26 19:49:00,
2013-08-26 15:54:00,80.6,66.4,30.18,WSW,242,3.5,3.5,62,0.00,CLR,,0.00,WeatherDisplay:10.37,2013-08-26 19:54:00,
2013-08-26 15:59:00,81.5,67.7,30.17,SW,234,4.0,4.0,63,0.00,CLR,,0.00,WeatherDisplay:10.37,2013-08-26 19:59:00,
2013-08-26 16:04:00,81.6,67.3,30.17,SW,236,2.3,2.3,62,0.00,CLR,,0.00,WeatherDisplay:10.37,2013-08-26 20:04:00,
2013-08-26 16:09:00,82.1,67.3,30.17,WSW,257,2.3,2.3,61,0.00,CLR,,0.00,WeatherDisplay:10.37,2013-08-26 20:09:00,
2013-08-26 16:14:00,82.8,66.5,30.17,SW,229,5.8,5.8,58,0.00,CLR,,0.00,WeatherDisplay:10.37,2013-08-26 20:14:00,
2013-08-26 16:19:00,82.8,67.5,30.16,WNW,297,6.0,6.0,60,0.00,CLR,,0.00,WeatherDisplay:10.37,2013-08-26 20:19:00,
2013-08-26 16:24:00,82.7,67.4,30.16,WNW,285,4.6,4.6,60,0.00,CLR,,0.00,WeatherDisplay:10.37,2013-08-26 20:24:00,
2013-08-26 16:29:00,82.2,67.4,30.16,NW,311,4.6,4.6,61,0.00,CLR,,0.00,WeatherDisplay:10.37,2013-08-26 20:29:00,
2013-08-26 16:34:00,81.7,66.5,30.16,WSW,257,4.6,4.6,60,0.00,CLR,,0.00,WeatherDisplay:10.37,2013-08-26 20:34:00,
2013-08-26 16:39:00,81.1,65.4,30.16,WNW,287,8.1,8.1,59,0.00,CLR,,0.00,WeatherDisplay:10.37,2013-08-26 20:39:00,
2013-08-26 16:44:00,81.4,66.7,30.16,WSW,244,6.9,6.9,61,0.00,CLR,,0.00,WeatherDisplay:10.37,2013-08-26 20:44:00,
2013-08-26 16:49:00,81.8,66.6,30.16,WSW,252,3.5,3.5,60,0.00,CLR,,0.00,WeatherDisplay:10.37,2013-08-26 20:49:00,
2013-08-26 16:54:00,81.2,65.5,30.16,WNW,286,3.5,3.5,59,0.00,CLR,,0.00,WeatherDisplay:10.37,2013-08-26 20:54:00,
2013-08-26 16:59:00,81.3,66.6,30.15,WSW,247,4.6,4.6,61,0.00,CLR,,0.00,WeatherDisplay:10.37,2013-08-26 20:59:00,
2013-08-26 17:04:00,81.5,65.3,30.16,WSW,249,3.5,3.5,58,0.00,CLR,,0.00,WeatherDisplay:10.37,2013-08-26 21:04:00,
2013-08-26 17:09:00,81.1,66.4,30.16,NW,310,4.0,4.0,61,0.00,CLR,,0.00,WeatherDisplay:10.37,2013-08-26 21:09:00,
2013-08-26 17:14:00,80.9,66.2,30.15,West,271,6.9,6.9,61,0.00,CLR,,0.00,WeatherDisplay:10.37,2013-08-26 21:14:00,
2013-08-26 17:19:00,79.7,65.5,30.15,WSW,255,4.0,4.0,62,0.00,CLR,,0.00,WeatherDisplay:10.37,2013-08-26 21:19:00,
2013-08-26 17:24:00,78.7,65.9,30.15,West,259,2.3,2.3,65,0.00,CLR,,0.00,WeatherDisplay:10.37,2013-08-26 21:24:00,
2013-08-26 17:29:00,78.2,65.9,30.15,West,264,1.2,1.2,66,0.00,CLR,,0.00,WeatherDisplay:10.37,2013-08-26 21:29:00,
2013-08-26 17:34:00,77.8,66.4,30.15,SW,234,2.3,2.3,68,0.00,CLR,,0.00,WeatherDisplay:10.37,2013-08-26 21:34:00,
2013-08-26 17:39:00,77.3,66.3,30.15,WSW,242,1.2,1.2,69,0.00,CLR,,0.00,WeatherDisplay:10.37,2013-08-26 21:39:00,
2013-08-26 17:44:00,77.0,66.0,30.14,West,260,1.2,1.2,69,0.00,CLR,,0.00,WeatherDisplay:10.37,2013-08-26 21:44:00,
2013-08-26 17:49:00,77.4,66.4,30.14,SW,232,2.3,0.0,69,0.00,CLR,,0.00,WeatherDisplay:10.37,2013-08-26 21:49:00,
2013-08-26 17:54:00,78.2,67.2,30.14,WNW,286,2.3,2.3,69,0.00,CLR,,0.00,WeatherDisplay:10.37,2013-08-26 21:54:00,
2013-08-26 17:59:00,79.0,66.7,30.14,West,260,4.6,4.6,66,0.00,CLR,,0.00,WeatherDisplay:10.37,2013-08-26 21:59:00,
2013-08-26 18:04:00,79.2,66.4,30.14,West,276,3.5,3.5,65,0.00,CLR,,0.00,WeatherDisplay:10.37,2013-08-26 22:04:00,
2013-08-26 18:09:00,79.3,66.5,30.14,WSW,243,4.0,4.0,65,0.00,CLR,,0.00,WeatherDisplay:10.37,2013-08-26 22:09:00,
2013-08-26 18:14:00,79.2,66.9,30.14,West,276,3.5,3.5,66,0.00,CLR,,0.00,WeatherDisplay:10.37,2013-08-26 22:14:00,
2013-08-26 18:19:00,79.4,66.6,30.14,SW,234,6.9,6.9,65,0.00,CLR,,0.00,WeatherDisplay:10.37,2013-08-26 22:19:00,
2013-08-26 18:24:00,79.3,66.5,30.14,WNW,286,3.5,3.5,65,0.00,CLR,,0.00,WeatherDisplay:10.37,2013-08-26 22:24:00,
2013-08-26 18:29:00,79.2,66.4,30.13,West,264,3.5,3.5,65,0.00,CLR,,0.00,WeatherDisplay:10.37,2013-08-26 22:29:00,
2013-08-26 18:34:00,79.2,67.3,30.13,WSW,241,2.3,2.3,67,0.00,CLR,,0.00,WeatherDisplay:10.37,2013-08-26 22:34:00,
2013-08-26 18:39:00,79.0,66.7,30.13,West,261,3.5,3.5,66,0.00,CLR,,0.00,WeatherDisplay:10.37,2013-08-26 22:39:00,
2013-08-26 18:44:00,78.9,66.6,30.13,WSW,238,1.2,1.2,66,0.00,CLR,,0.00,WeatherDisplay:10.37,2013-08-26 22:44:00,
2013-08-26 18:49:00,79.0,67.1,30.13,WSW,242,2.0,2.0,67,0.00,CLR,,0.00,WeatherDisplay:10.37,2013-08-26 22:49:00,
2013-08-26 18:54:00,79.0,67.5,30.13,WSW,248,1.2,1.2,68,0.00,CLR,,0.00,WeatherDisplay:10.37,2013-08-26 22:54:00,
2013-08-26 18:59:00,78.8,66.9,30.13,WSW,255,3.5,3.5,67,0.00,CLR,,0.00,WeatherDisplay:10.37,2013-08-26 22:59:00,
2013-08-26 19:04:00,78.4,67.0,30.13,WSW,254,1.2,0.0,68,0.00,CLR,,0.00,WeatherDisplay:10.37,2013-08-26 23:04:00,
2013-08-26 19:09:00,78.3,66.9,30.13,WSW,255,1.2,0.0,68,0.00,CLR,,0.00,WeatherDisplay:10.37,2013-08-26 23:09:00,
2013-08-26 19:14:00,78.1,66.7,30.13,WSW,250,1.2,0.0,68,0.00,CLR,,0.00,WeatherDisplay:10.37,2013-08-26 23:14:00,
2013-08-26 19:19:00,77.8,66.4,30.13,West,259,1.2,1.2,68,0.00,CLR,,0.00,WeatherDisplay:10.37,2013-08-26 23:19:00,
2013-08-26 19:24:00,77.5,66.5,30.13,WSW,258,0.0,0.0,69,0.00,CLR,,0.00,WeatherDisplay:10.37,2013-08-26 23:24:00,
2013-08-26 19:30:00,77.1,67.0,30.13,WSW,258,1.2,0.0,71,0.00,CLR,,0.00,WeatherDisplay:10.37,2013-08-26 23:30:00,
2013-08-26 19:35:00,76.1,66.4,30.13,West,259,0.0,0.0,72,0.00,CLR,,0.00,WeatherDisplay:10.37,2013-08-26 23:35:00,
2013-08-26 19:40:00,75.5,66.2,30.13,West,259,0.0,0.0,73,0.00,CLR,,0.00,WeatherDisplay:10.37,2013-08-26 23:40:00,
2013-08-26 19:45:00,74.9,66.4,30.12,West,259,0.0,0.0,75,0.00,CLR,,0.00,WeatherDisplay:10.37,2013-08-26 23:45:00,
2013-08-26 19:50:00,74.4,65.9,30.12,West,259,0.0,0.0,75,0.00,CLR,,0.00,WeatherDisplay:10.37,2013-08-26 23:50:00,
2013-08-26 19:55:00,73.7,65.7,30.13,West,259,0.0,0.0,76,0.00,CLR,,0.00,WeatherDisplay:10.37,2013-08-26 23:55:00,
2013-08-26 20:00:00,72.9,65.6,30.13,WSW,258,0.0,0.0,78,0.00,CLR,,0.00,WeatherDisplay:10.37,2013-08-27 00:00:00,
2013-08-26 20:05:00,72.3,65.4,30.13,West,259,0.0,0.0,79,0.00,CLR,,0.00,WeatherDisplay:10.37,2013-08-27 00:05:00,
2013-08-26 20:10:00,71.5,65.0,30.13,West,259,0.0,0.0,80,0.00,CLR,,0.00,WeatherDisplay:10.37,2013-08-27 00:10:00,
2013-08-26 20:15:00,70.8,64.7,30.13,WSW,258,0.0,0.0,81,0.00,CLR,,0.00,WeatherDisplay:10.37,2013-08-27 00:15:00,
2013-08-26 20:20:00,70.2,64.8,30.13,WSW,258,0.0,0.0,83,0.00,CLR,,0.00,WeatherDisplay:10.37,2013-08-27 00:20:00,
2013-08-26 20:25:00,69.5,64.8,30.13,WSW,258,0.0,0.0,85,0.00,CLR,,0.00,WeatherDisplay:10.37,2013-08-27 00:25:00,
2013-08-26 20:30:00,69.0,64.6,30.13,West,259,0.0,0.0,86,0.00,CLR,,0.00,WeatherDisplay:10.37,2013-08-27 00:30:00,
2013-08-26 20:35:00,68.5,64.5,30.13,WSW,258,0.0,0.0,87,0.00,,,0.00,WeatherDisplay:10.37,2013-08-27 00:35:00,
2013-08-26 20:40:00,68.1,64.4,30.13,West,259,0.0,0.0,88,0.00,,,0.00,WeatherDisplay:10.37,2013-08-27 00:40:00,
2013-08-26 20:45:00,67.7,64.3,30.13,WSW,258,0.0,0.0,89,0.00,,,0.00,WeatherDisplay:10.37,2013-08-27 00:45:00,
2013-08-26 20:50:00,67.4,64.0,30.13,WSW,258,0.0,0.0,89,0.00,,,0.00,WeatherDisplay:10.37,2013-08-27 00:50:00,
2013-08-26 20:55:00,67.0,64.0,30.13,WSW,258,0.0,0.0,90,0.00,,,0.00,WeatherDisplay:10.37,2013-08-27 00:55:00,
2013-08-26 21:00:00,66.7,64.0,30.13,West,259,0.0,0.0,91,0.00,,,0.00,WeatherDisplay:10.37,2013-08-27 01:00:00,
2013-08-26 21:05:00,66.5,63.8,30.14,WSW,258,0.0,0.0,91,0.00,,,0.00,WeatherDisplay:10.37,2013-08-27 01:05:00,
2013-08-26 21:10:00,66.1,63.4,30.14,WSW,258,0.0,0.0,91,0.00,,,0.00,WeatherDisplay:10.37,2013-08-27 01:10:00,
2013-08-26 21:15:00,65.8,63.4,30.14,WSW,258,0.0,0.0,92,0.00,,,0.00,WeatherDisplay:10.37,2013-08-27 01:15:00,
2013-08-26 21:20:00,65.9,63.8,30.14,West,259,0.0,0.0,93,0.00,,,0.00,WeatherDisplay:10.37,2013-08-27 01:20:00,
2013-08-26 21:25:00,65.8,64.0,30.14,WSW,258,0.0,0.0,94,0.00,,,0.00,WeatherDisplay:10.37,2013-08-27 01:25:00,
2013-08-26 21:30:00,65.8,64.0,30.14,WSW,258,0.0,0.0,94,0.00,,,0.00,WeatherDisplay:10.37,2013-08-27 01:30:00,
2013-08-26 21:35:00,65.6,63.8,30.14,West,259,0.0,0.0,94,0.00,,,0.00,WeatherDisplay:10.37,2013-08-27 01:35:00,
2013-08-26 21:40:00,65.6,63.8,30.14,WSW,258,0.0,0.0,94,0.00,,,0.00,WeatherDisplay:10.37,2013-08-27 01:40:00,
2013-08-26 21:45:00,65.5,63.7,30.15,WSW,258,0.0,0.0,94,0.00,,,0.00,WeatherDisplay:10.37,2013-08-27 01:45:00,
2013-08-26 21:50:00,65.4,63.6,30.14,WSW,258,0.0,0.0,94,0.00,,,0.00,WeatherDisplay:10.37,2013-08-27 01:50:00,
2013-08-26 21:55:00,65.4,63.9,30.14,WSW,258,0.0,0.0,95,0.00,,,0.00,WeatherDisplay:10.37,2013-08-27 01:55:00,
2013-08-26 22:00:00,65.2,63.4,30.14,WSW,258,0.0,0.0,94,0.00,,,0.00,WeatherDisplay:10.37,2013-08-27 02:00:00,
2013-08-26 22:05:00,65.0,63.5,30.14,WSW,258,0.0,0.0,95,0.00,,,0.00,WeatherDisplay:10.37,2013-08-27 02:05:00,
2013-08-26 22:10:00,64.9,63.4,30.14,WSW,258,0.0,0.0,95,0.00,,,0.00,WeatherDisplay:10.37,2013-08-27 02:10:00,
2013-08-26 22:15:00,64.9,63.4,30.15,WSW,258,0.0,0.0,95,0.00,,,0.00,WeatherDisplay:10.37,2013-08-27 02:15:00,
2013-08-26 22:20:00,64.7,63.2,30.15,West,259,0.0,0.0,95,0.00,,,0.00,WeatherDisplay:10.37,2013-08-27 02:20:00,
2013-08-26 22:25:00,64.6,63.1,30.15,WSW,258,0.0,0.0,95,0.00,,,0.00,WeatherDisplay:10.37,2013-08-27 02:25:00,
2013-08-26 22:30:00,64.5,63.0,30.15,WSW,258,0.0,0.0,95,0.00,,,0.00,WeatherDisplay:10.37,2013-08-27 02:30:00,
2013-08-26 22:35:00,64.3,62.8,30.15,West,259,0.0,0.0,95,0.00,,,0.00,WeatherDisplay:10.37,2013-08-27 02:35:00,
2013-08-26 22:40:00,64.2,63.0,30.15,WSW,258,0.0,0.0,96,0.00,,,0.00,WeatherDisplay:10.37,2013-08-27 02:40:00,
2013-08-26 22:45:00,64.0,62.5,30.15,WSW,258,0.0,0.0,95,0.00,,,0.00,WeatherDisplay:10.37,2013-08-27 02:45:00,
2013-08-26 22:50:00,63.8,62.6,30.15,WSW,258,0.0,0.0,96,0.00,,,0.00,WeatherDisplay:10.37,2013-08-27 02:50:00,
2013-08-26 22:55:00,63.8,62.6,30.16,WSW,258,0.0,0.0,96,0.00,,,0.00,WeatherDisplay:10.37,2013-08-27 02:55:00,
2013-08-26 23:00:00,63.7,62.5,30.16,WSW,258,0.0,0.0,96,0.00,,,0.00,WeatherDisplay:10.37,2013-08-27 03:00:00,
2013-08-26 23:05:00,63.6,62.4,30.16,WSW,258,0.0,0.0,96,0.00,,,0.00,WeatherDisplay:10.37,2013-08-27 03:05:00,
2013-08-26 23:09:00,63.4,62.2,30.16,WSW,258,0.0,0.0,96,0.00,,,0.00,WeatherDisplay:10.37,2013-08-27 03:09:00,
2013-08-26 23:15:00,63.1,61.9,30.15,WSW,258,0.0,0.0,96,0.00,,,0.00,WeatherDisplay:10.37,2013-08-27 03:15:00,
2013-08-26 23:20:00,62.9,61.7,30.15,WSW,258,0.0,0.0,96,0.00,,,0.00,WeatherDisplay:10.37,2013-08-27 03:20:00,
2013-08-26 23:25:00,62.8,61.6,30.16,WSW,258,0.0,0.0,96,0.00,,,0.00,WeatherDisplay:10.37,2013-08-27 03:25:00,
2013-08-26 23:30:00,62.7,61.8,30.16,WSW,258,0.0,0.0,97,0.00,,,0.00,WeatherDisplay:10.37,2013-08-27 03:30:00,
2013-08-26 23:34:00,62.7,61.8,30.16,WSW,258,0.0,0.0,97,0.00,,,0.00,WeatherDisplay:10.37,2013-08-27 03:34:00,
2013-08-26 23:40:00,62.5,61.3,30.15,WSW,258,0.0,0.0,96,0.00,,,0.00,WeatherDisplay:10.37,2013-08-27 03:40:00,
2013-08-26 23:45:00,62.5,61.6,30.15,WSW,258,0.0,0.0,97,0.00,,,0.00,WeatherDisplay:10.37,2013-08-27 03:45:00,
2013-08-26 23:50:00,62.4,61.6,30.15,WSW,258,0.0,0.0,97,0.00,,,0.00,WeatherDisplay:10.37,2013-08-27 03:50:00,
2013-08-26 23:55:00,62.2,61.3,30.15,WSW,258,0.0,0.0,97,0.00,,,0.00,WeatherDisplay:10.37,2013-08-27 03:55:00,